Islip, NY

3:19 PM EST on November 15, 2019 (GMT -0500)
Long Island Mac Arthur

Weather History for KISP - October, 2019

Change the Weather History Date:

Tuesday, October 22, 2019

  Actual Average Record
Temperature  
Mean Temperature 58 °F 52 °F  
Max Temperature 63 °F 61 °F 77 °F (1979)
Min Temperature 52 °F 43 °F 27 °F (1974)
Degree Days  
Heating Degree Days 8 13  
Month to date heating degree days 162 214  
Since 1 July heating degree days 187 291  
Cooling Degree Days 0 0  
Month to date cooling degree days 18 9  
Year to date cooling degree days 985 786  
Growing Degree Days 8 (Base 50)    
Moisture  
Dew Point 55 °F    
Average Humidity 93    
Maximum Humidity 100    
Minimum Humidity 77    
Precipitation  
Precipitation 0.30 in 0.13 in 0.85 in (1984)
Month to date precipitation 3.91 2.71  
Year to date precipitation 36.90 37.43  
Snow  
Snow 0.00 in 0.00 in - ()
Month to date snowfall 0.0 0.0  
Since 1 July snowfall 0.0 0.0  
Snow Depth 0.00 in    
Sea Level Pressure  
Sea Level Pressure 30.00 in    
Wind  
Wind Speed 7 mph ()    
Max Wind Speed 20 mph    
Max Gust Speed 24 mph    
Visibility 7.0 miles    
Events Rain    
T = Trace of Precipitation, MM = Missing Value Source: Averaged Metar Reports

Daily Weather History Graph

Daily Weather History Graph

Search for Another Location

Airport or City:

Astronomy

Oct. 22, 2019 Rise Set
Actual Time 7:11 AM EDT 6:02 PM EDT
Civil Twilight 6:43 AM EDT 6:29 PM EDT
Nautical Twilight 6:11 AM EDT 7:01 PM EDT
Astronomical Twilight 5:39 AM EDT 7:33 PM EDT
Moon 12:14 AM EDT (10/22) 3:12 PM EDT (10/22)
Length of Visible Light 11h 46m
Length of Day
10h 50m
Last Quarter, 37% of the Moon is Illuminated
Oct 22
Last Quarter
Oct 27
New
Nov 4
First Quarter
Nov 12
Full
Nov 19
Last Quarter

Hourly Weather History & Observations

Time (EDT) Temp. Dew Point Humidity Pressure Visibility Wind Dir Wind Speed Gust Speed Precip Events Conditions
12:56 AM 52.0 °F 46.9 °F 83% 30.12 in 10.0 mi ENE 3.5 mph - N/A   Clear
1:56 AM 52.0 °F 46.0 °F 80% 30.11 in 10.0 mi ENE 6.9 mph - N/A   Mostly Cloudy
2:56 AM 53.1 °F 46.0 °F 77% 30.10 in 10.0 mi NNE 4.6 mph - N/A   Clear
3:56 AM 53.1 °F 46.9 °F 80% 30.08 in 10.0 mi ENE 6.9 mph - N/A   Clear
4:40 AM 53.1 °F 48.9 °F 86% 30.07 in 10.0 mi ENE 8.1 mph - N/A   Mostly Cloudy
4:56 AM 54.0 °F 50.0 °F 86% 30.08 in 10.0 mi ENE 5.8 mph - N/A   Overcast
5:56 AM 54.0 °F 51.1 °F 90% 30.08 in 10.0 mi NNE 6.9 mph - N/A   Overcast
6:56 AM 54.0 °F 51.1 °F 90% 30.07 in 10.0 mi NE 6.9 mph - N/A   Overcast
7:04 AM 54.0 °F 52.0 °F 93% 30.08 in 10.0 mi ENE 6.9 mph - N/A   Overcast
7:56 AM 54.0 °F 53.1 °F 97% 30.09 in 10.0 mi NE 6.9 mph - N/A   Overcast
8:56 AM 55.0 °F 53.1 °F 93% 30.09 in 10.0 mi ENE 6.9 mph - N/A   Overcast
9:35 AM 55.9 °F 53.1 °F 90% 30.07 in 10.0 mi East 8.1 mph - N/A   Overcast
9:56 AM 55.9 °F 54.0 °F 93% 30.07 in 10.0 mi East 9.2 mph - N/A   Overcast
10:56 AM 57.0 °F 55.0 °F 93% 30.08 in 10.0 mi ENE 3.5 mph - N/A   Overcast
11:56 AM 57.9 °F 55.9 °F 93% 30.07 in 4.0 mi East 5.8 mph - 0.00 in   Light Drizzle
12:11 PM 59.0 °F 57.0 °F 93% 30.06 in 1.5 mi East 8.1 mph - 0.00 in Rain Light Rain
12:56 PM 57.9 °F 57.9 °F 100% 30.04 in 1.0 mi East 10.4 mph - 0.02 in Rain Light Rain
1:38 PM 59.0 °F 59.0 °F 100% 30.00 in 3.0 mi East 13.8 mph - 0.00 in   Light Drizzle
1:56 PM 59.0 °F 57.9 °F 96% 29.99 in 5.0 mi East 13.8 mph - 0.00 in   Overcast
2:56 PM 59.0 °F 57.9 °F 96% 29.95 in 10.0 mi East 17.3 mph 24.2 mph N/A   Overcast
3:56 PM 59.0 °F 57.0 °F 93% 29.94 in 10.0 mi East 15.0 mph - N/A   Overcast
4:30 PM 59.0 °F 57.0 °F 93% 29.93 in 10.0 mi East 15.0 mph - N/A   Overcast
4:52 PM 59.0 °F 57.2 °F 94% 29.92 in 10.0 mi East 13.8 mph - N/A   Overcast
5:56 PM 57.9 °F 57.0 °F 97% 29.92 in 2.0 mi East 11.5 mph - N/A   Overcast
6:56 PM 57.9 °F 57.9 °F 100% 29.91 in 3.0 mi East 16.1 mph - 0.00 in   Light Drizzle
7:56 PM 57.9 °F 57.9 °F 100% 29.89 in 3.0 mi East 13.8 mph - 0.00 in   Light Drizzle
8:11 PM 57.9 °F 57.9 °F 100% 29.90 in 3.0 mi East 9.2 mph - 0.00 in   Light Drizzle
8:56 PM 59.0 °F 59.0 °F 100% 29.91 in 0.5 mi ESE 4.6 mph - 0.00 in   Light Drizzle
9:56 PM 59.0 °F 59.0 °F 100% 29.86 in 2.0 mi ESE 12.7 mph - 0.03 in Rain Light Rain
10:56 PM 60.1 °F 60.1 °F 100% 29.83 in 5.0 mi East 12.7 mph - 0.01 in   Overcast
11:56 PM 62.1 °F 62.1 °F 100% 29.81 in 5.0 mi SE 11.5 mph - 0.17 in Rain Light Rain